Time,TemperatureF,DewpointF,PressureIn,WindDirection,WindDirectionDegrees,WindSpeedMPH,WindSpeedGustMPH,Humidity,HourlyPrecipIn,Conditions,Clouds,dailyrainin,SoftwareType,DateUTC
2013-09-17 00:00:00,43.4,33.2,30.39,NE,48,7.0,11.0,67,0.00,,,0.00,Wunderground v.1.15,2013-09-17 04:00:00,
2013-09-17 00:05:00,43.3,33.1,30.39,ENE,70,6.0,11.0,67,0.00,,,0.00,Wunderground v.1.15,2013-09-17 04:05:00,
2013-09-17 00:10:00,43.4,33.2,30.39,ENE,65,6.0,6.0,67,0.00,,,0.00,Wunderground v.1.15,2013-09-17 04:10:00,
2013-09-17 00:15:00,43.4,33.2,30.39,NE,51,7.0,7.0,67,0.00,,,0.00,Wunderground v.1.15,2013-09-17 04:15:00,
2013-09-17 00:20:00,43.3,33.1,30.39,East,86,6.0,6.0,67,0.00,,,0.00,Wunderground v.1.15,2013-09-17 04:20:00,
2013-09-17 00:25:00,43.1,33.3,30.39,ENE,74,6.0,7.0,68,0.00,,,0.00,Wunderground v.1.15,2013-09-17 04:25:00,
2013-09-17 00:30:00,43.1,33.3,30.39,East,84,6.0,6.0,68,0.00,,,0.00,Wunderground v.1.15,2013-09-17 04:30:00,
2013-09-17 00:35:00,43.1,33.3,30.40,ENE,65,6.0,6.0,68,0.00,,,0.00,Wunderground v.1.15,2013-09-17 04:35:00,
2013-09-17 00:40:00,43.0,33.5,30.40,ENE,59,5.0,11.0,69,0.00,,,0.00,Wunderground v.1.15,2013-09-17 04:40:00,
2013-09-17 00:45:00,43.0,33.2,30.40,NE,46,6.0,11.0,68,0.00,,,0.00,Wunderground v.1.15,2013-09-17 04:45:00,
2013-09-17 00:50:00,43.0,33.2,30.41,ENE,68,6.0,10.0,68,0.00,,,0.00,Wunderground v.1.15,2013-09-17 04:50:00,
2013-09-17 00:55:00,43.0,33.2,30.41,ENE,59,6.0,10.0,68,0.00,,,0.00,Wunderground v.1.15,2013-09-17 04:55:00,
2013-09-17 01:00:00,43.2,33.3,30.41,ENE,59,5.0,5.0,68,0.00,,,0.00,Wunderground v.1.15,2013-09-17 05:00:00,
2013-09-17 01:05:00,43.3,33.1,30.41,ENE,77,4.0,5.0,67,0.00,,,0.00,Wunderground v.1.15,2013-09-17 05:05:00,
2013-09-17 01:10:00,43.2,33.3,30.41,East,81,3.0,3.0,68,0.00,,,0.00,Wunderground v.1.15,2013-09-17 05:10:00,
2013-09-17 01:15:00,43.2,33.3,30.42,East,99,3.0,3.0,68,0.00,,,0.00,Wunderground v.1.15,2013-09-17 05:15:00,
2013-09-17 01:20:00,43.1,33.6,30.42,ESE,111,2.0,5.0,69,0.00,,,0.00,Wunderground v.1.15,2013-09-17 05:20:00,
2013-09-17 01:25:00,43.0,33.5,30.42,East,89,3.0,5.0,69,0.00,,,0.00,Wunderground v.1.15,2013-09-17 05:25:00,
2013-09-17 01:30:00,42.8,33.7,30.42,East,86,3.0,3.0,70,0.00,,,0.00,Wunderground v.1.15,2013-09-17 05:30:00,
2013-09-17 01:35:00,42.6,33.5,30.42,ESE,103,3.0,5.0,70,0.00,,,0.00,Wunderground v.1.15,2013-09-17 05:35:00,
2013-09-17 01:40:00,42.4,33.7,30.42,ESE,108,4.0,4.0,71,0.00,,,0.00,Wunderground v.1.15,2013-09-17 05:40:00,
2013-09-17 01:45:00,42.3,33.9,30.42,ESE,102,3.0,4.0,72,0.00,,,0.00,Wunderground v.1.15,2013-09-17 05:45:00,
2013-09-17 01:50:00,42.3,33.9,30.42,ESE,117,3.0,3.0,72,0.00,,,0.00,Wunderground v.1.15,2013-09-17 05:50:00,
2013-09-17 01:55:00,42.4,34.0,30.42,ESE,109,3.0,3.0,72,0.00,,,0.00,Wunderground v.1.15,2013-09-17 05:55:00,
2013-09-17 02:00:00,42.5,33.8,30.42,ESE,105,3.0,3.0,71,0.00,,,0.00,Wunderground v.1.15,2013-09-17 06:00:00,
2013-09-17 02:05:00,42.6,33.9,30.42,ENE,76,3.0,3.0,71,0.00,,,0.00,Wunderground v.1.15,2013-09-17 06:05:00,
2013-09-17 02:10:00,43.0,33.9,30.42,East,98,3.0,3.0,70,0.00,,,0.00,Wunderground v.1.15,2013-09-17 06:10:00,
2013-09-17 02:15:00,43.0,33.9,30.42,NE,55,3.0,6.0,70,0.00,,,0.00,Wunderground v.1.15,2013-09-17 06:15:00,
2013-09-17 02:20:00,43.1,33.6,30.42,ENE,74,3.0,6.0,69,0.00,,,0.00,Wunderground v.1.15,2013-09-17 06:20:00,
2013-09-17 02:25:00,43.1,34.0,30.42,NE,55,3.0,6.0,70,0.00,,,0.00,Wunderground v.1.15,2013-09-17 06:25:00,
2013-09-17 02:30:00,43.0,33.9,30.42,NE,37,4.0,4.0,70,0.00,,,0.00,Wunderground v.1.15,2013-09-17 06:30:00,
2013-09-17 02:35:00,42.9,33.8,30.42,East,83,3.0,4.0,70,0.00,,,0.00,Wunderground v.1.15,2013-09-17 06:35:00,
2013-09-17 02:45:00,42.8,33.7,30.42,East,84,3.0,4.0,70,0.00,,,0.00,Wunderground v.1.15,2013-09-17 06:45:00,
2013-09-17 02:50:00,42.7,33.6,30.42,ENE,72,3.0,3.0,70,0.00,,,0.00,Wunderground v.1.15,2013-09-17 06:50:00,
2013-09-17 03:00:00,42.5,33.8,30.42,NE,51,3.0,5.0,71,0.00,,,0.00,Wunderground v.1.15,2013-09-17 07:00:00,
2013-09-17 03:05:00,42.5,34.1,30.42,ENE,59,4.0,10.0,72,0.00,,,0.00,Wunderground v.1.15,2013-09-17 07:05:00,
2013-09-17 03:10:00,42.5,34.1,30.42,ENE,69,4.0,4.0,72,0.00,,,0.00,Wunderground v.1.15,2013-09-17 07:10:00,
2013-09-17 03:15:00,42.4,34.0,30.42,NE,53,4.0,4.0,72,0.00,,,0.00,Wunderground v.1.15,2013-09-17 07:15:00,
2013-09-17 03:20:00,42.4,34.0,30.43,ENE,67,4.0,4.0,72,0.00,,,0.00,Wunderground v.1.15,2013-09-17 07:20:00,
2013-09-17 03:25:00,42.4,34.0,30.42,ENE,74,4.0,4.0,72,0.00,,,0.00,Wunderground v.1.15,2013-09-17 07:25:00,
2013-09-17 03:30:00,42.2,34.2,30.43,East,90,4.0,7.0,73,0.00,,,0.00,Wunderground v.1.15,2013-09-17 07:30:00,
2013-09-17 03:35:00,42.2,34.2,30.43,East,90,4.0,7.0,73,0.00,,,0.00,Wunderground v.1.15,2013-09-17 07:35:00,
2013-09-17 03:40:00,42.1,34.1,30.43,ESE,111,3.0,4.0,73,0.00,,,0.00,Wunderground v.1.15,2013-09-17 07:40:00,
2013-09-17 03:45:00,42.1,34.1,30.43,ENE,73,3.0,5.0,73,0.00,,,0.00,Wunderground v.1.15,2013-09-17 07:45:00,
2013-09-17 03:50:00,42.1,34.1,30.43,ESE,113,3.0,3.0,73,0.00,,,0.00,Wunderground v.1.15,2013-09-17 07:50:00,
2013-09-17 03:55:00,42.0,34.0,30.44,East,90,3.0,3.0,73,0.00,,,0.00,Wunderground v.1.15,2013-09-17 07:55:00,
2013-09-17 04:00:00,41.9,34.2,30.44,ESE,109,3.0,3.0,74,0.00,,,0.00,Wunderground v.1.15,2013-09-17 08:00:00,
2013-09-17 04:05:00,41.8,34.1,30.44,ESE,105,3.0,4.0,74,0.00,,,0.00,Wunderground v.1.15,2013-09-17 08:05:00,
2013-09-17 04:15:00,41.9,34.2,30.44,ENE,74,3.0,3.0,74,0.00,,,0.00,Wunderground v.1.15,2013-09-17 08:15:00,
2013-09-17 04:20:00,41.9,34.2,30.44,East,96,3.0,4.0,74,0.00,,,0.00,Wunderground v.1.15,2013-09-17 08:20:00,
2013-09-17 04:25:00,42.0,34.3,30.44,ESE,106,3.0,4.0,74,0.00,,,0.00,Wunderground v.1.15,2013-09-17 08:25:00,
2013-09-17 04:30:00,42.0,34.3,30.44,ESE,104,3.0,3.0,74,0.00,,,0.00,Wunderground v.1.15,2013-09-17 08:30:00,
2013-09-17 04:35:00,42.0,34.3,30.44,East,98,3.0,3.0,74,0.00,,,0.00,Wunderground v.1.15,2013-09-17 08:35:00,
2013-09-17 04:40:00,42.0,34.3,30.44,East,80,2.0,2.0,74,0.00,,,0.00,Wunderground v.1.15,2013-09-17 08:40:00,
2013-09-17 04:45:00,41.8,34.5,30.44,East,98,1.0,2.0,75,0.00,,,0.00,Wunderground v.1.15,2013-09-17 08:45:00,
2013-09-17 04:50:00,41.6,34.3,30.44,East,82,2.0,2.0,75,0.00,,,0.00,Wunderground v.1.15,2013-09-17 08:50:00,
2013-09-17 05:00:00,41.0,34.3,30.45,ENE,68,1.0,1.0,77,0.00,,,0.00,Wunderground v.1.15,2013-09-17 09:00:00,
2013-09-17 05:05:00,40.9,34.2,30.45,ENE,63,2.0,3.0,77,0.00,,,0.00,Wunderground v.1.15,2013-09-17 09:05:00,
2013-09-17 05:10:00,40.9,34.2,30.46,ENE,69,2.0,2.0,77,0.00,,,0.00,Wunderground v.1.15,2013-09-17 09:10:00,
2013-09-17 05:15:00,40.9,34.2,30.46,East,83,3.0,3.0,77,0.00,,,0.00,Wunderground v.1.15,2013-09-17 09:15:00,
2013-09-17 05:20:00,41.2,34.2,30.46,NNE,29,4.0,5.0,76,0.00,,,0.00,Wunderground v.1.15,2013-09-17 09:20:00,
2013-09-17 05:25:00,41.4,34.4,30.46,ENE,73,4.0,5.0,76,0.00,,,0.00,Wunderground v.1.15,2013-09-17 09:25:00,
2013-09-17 05:30:00,41.9,34.2,30.47,ENE,70,4.0,6.0,74,0.00,,,0.00,Wunderground v.1.15,2013-09-17 09:30:00,
2013-09-17 05:35:00,42.4,34.4,30.47,ESE,107,4.0,6.0,73,0.00,,,0.00,Wunderground v.1.15,2013-09-17 09:35:00,
2013-09-17 05:40:00,42.6,34.2,30.47,ENE,71,4.0,4.0,72,0.00,,,0.00,Wunderground v.1.15,2013-09-17 09:40:00,
2013-09-17 05:45:00,42.8,34.0,30.48,ENE,69,4.0,4.0,71,0.00,,,0.00,Wunderground v.1.15,2013-09-17 09:45:00,
2013-09-17 05:50:00,43.0,34.2,30.48,NE,50,3.0,5.0,71,0.00,,,0.00,Wunderground v.1.15,2013-09-17 09:50:00,
2013-09-17 05:55:00,43.0,34.2,30.48,ENE,69,3.0,5.0,71,0.00,,,0.00,Wunderground v.1.15,2013-09-17 09:55:00,
2013-09-17 06:00:00,42.9,33.8,30.49,NE,49,4.0,6.0,70,0.00,,,0.00,Wunderground v.1.15,2013-09-17 10:00:00,
2013-09-17 06:05:00,43.1,34.0,30.49,NE,48,5.0,6.0,70,0.00,,,0.00,Wunderground v.1.15,2013-09-17 10:05:00,
2013-09-17 06:10:00,43.3,34.2,30.49,East,82,5.0,5.0,70,0.00,,,0.00,Wunderground v.1.15,2013-09-17 10:10:00,
2013-09-17 06:20:00,43.2,33.7,30.49,NNE,28,3.0,10.0,69,0.00,,,0.00,Wunderground v.1.15,2013-09-17 10:20:00,
2013-09-17 06:25:00,43.0,33.9,30.49,NE,38,4.0,10.0,70,0.00,,,0.00,Wunderground v.1.15,2013-09-17 10:25:00,
2013-09-17 06:30:00,42.9,33.8,30.50,NNE,24,3.0,4.0,70,0.00,,,0.00,Wunderground v.1.15,2013-09-17 10:30:00,
2013-09-17 06:35:00,42.9,33.8,30.50,NE,38,3.0,4.0,70,0.00,,,0.00,Wunderground v.1.15,2013-09-17 10:35:00,
2013-09-17 06:40:00,43.1,33.6,30.50,NE,55,4.0,4.0,69,0.00,,,0.00,Wunderground v.1.15,2013-09-17 10:40:00,
2013-09-17 06:45:00,43.2,33.7,30.50,North,5,5.0,5.0,69,0.00,,,0.00,Wunderground v.1.15,2013-09-17 10:45:00,
2013-09-17 06:50:00,43.1,34.0,30.50,NE,51,4.0,4.0,70,0.00,,,0.00,Wunderground v.1.15,2013-09-17 10:50:00,
2013-09-17 06:55:00,42.9,33.8,30.50,East,84,3.0,4.0,70,0.00,,,0.00,Wunderground v.1.15,2013-09-17 10:55:00,
2013-09-17 07:00:00,42.6,33.9,30.50,ENE,63,3.0,6.0,71,0.00,,,0.00,Wunderground v.1.15,2013-09-17 11:00:00,
2013-09-17 07:10:00,42.6,33.9,30.50,NE,43,4.0,6.0,71,0.00,,,0.00,Wunderground v.1.15,2013-09-17 11:10:00,
2013-09-17 07:15:00,42.8,34.0,30.51,ENE,59,4.0,6.0,71,0.00,,,0.00,Wunderground v.1.15,2013-09-17 11:15:00,
2013-09-17 07:20:00,43.1,34.0,30.51,NE,55,4.0,6.0,70,0.00,,,0.00,Wunderground v.1.15,2013-09-17 11:20:00,
2013-09-17 07:25:00,43.4,34.3,30.51,NE,54,4.0,6.0,70,0.00,,,0.00,Wunderground v.1.15,2013-09-17 11:25:00,
2013-09-17 07:30:00,43.8,34.3,30.51,NE,42,4.0,6.0,69,0.00,,,0.00,Wunderground v.1.15,2013-09-17 11:30:00,
2013-09-17 07:35:00,44.3,34.4,30.51,NNE,31,4.0,6.0,68,0.00,,,0.00,Wunderground v.1.15,2013-09-17 11:35:00,
2013-09-17 07:45:00,44.8,34.9,30.52,NE,45,4.0,4.0,68,0.00,,,0.00,Wunderground v.1.15,2013-09-17 11:45:00,
2013-09-17 07:50:00,44.9,34.6,30.52,NE,36,4.0,4.0,67,0.00,,,0.00,Wunderground v.1.15,2013-09-17 11:50:00,
2013-09-17 07:55:00,45.1,34.8,30.52,ENE,57,4.0,4.0,67,0.00,,,0.00,Wunderground v.1.15,2013-09-17 11:55:00,
2013-09-17 08:00:00,45.2,34.9,30.52,ENE,63,4.0,7.0,67,0.00,,,0.00,Wunderground v.1.15,2013-09-17 12:00:00,
2013-09-17 08:05:00,45.4,34.7,30.52,NE,38,5.0,7.0,66,0.00,,,0.00,Wunderground v.1.15,2013-09-17 12:05:00,
2013-09-17 08:10:00,45.6,35.3,30.52,ENE,57,6.0,6.0,67,0.00,,,0.00,Wunderground v.1.15,2013-09-17 12:10:00,
2013-09-17 08:20:00,46.0,35.3,30.53,NNE,12,5.0,5.0,66,0.00,,,0.00,Wunderground v.1.15,2013-09-17 12:20:00,
2013-09-17 08:25:00,46.2,35.5,30.53,NE,44,5.0,5.0,66,0.00,,,0.00,Wunderground v.1.15,2013-09-17 12:25:00,
2013-09-17 08:30:00,46.4,35.7,30.53,NE,54,5.0,5.0,66,0.00,,,0.00,Wunderground v.1.15,2013-09-17 12:30:00,
2013-09-17 08:35:00,46.7,35.9,30.54,NNE,14,5.0,5.0,66,0.00,,,0.00,Wunderground v.1.15,2013-09-17 12:35:00,
2013-09-17 08:40:00,46.9,35.7,30.53,North,355,5.0,7.0,65,0.00,,,0.00,Wunderground v.1.15,2013-09-17 12:40:00,
2013-09-17 08:45:00,47.0,35.8,30.53,NE,53,6.0,7.0,65,0.00,,,0.00,Wunderground v.1.15,2013-09-17 12:45:00,
2013-09-17 08:50:00,47.2,36.0,30.54,NE,38,7.0,7.0,65,0.00,,,0.00,Wunderground v.1.15,2013-09-17 12:50:00,
2013-09-17 08:55:00,47.4,35.8,30.54,NE,49,6.0,7.0,64,0.00,,,0.00,Wunderground v.1.15,2013-09-17 12:55:00,
2013-09-17 09:00:00,47.6,36.0,30.54,East,98,5.0,5.0,64,0.00,,,0.00,Wunderground v.1.15,2013-09-17 13:00:00,
2013-09-17 09:05:00,47.8,36.2,30.54,NE,54,6.0,6.0,64,0.00,,,0.00,Wunderground v.1.15,2013-09-17 13:05:00,
2013-09-17 09:15:00,48.5,36.1,30.55,East,82,7.0,7.0,62,0.00,,,0.00,Wunderground v.1.15,2013-09-17 13:15:00,
2013-09-17 09:20:00,49.0,37.3,30.55,NNE,30,6.0,6.0,64,0.00,,,0.00,Wunderground v.1.15,2013-09-17 13:20:00,
2013-09-17 09:25:00,49.2,35.9,30.55,NE,38,4.0,6.0,60,0.00,,,0.00,Wunderground v.1.15,2013-09-17 13:25:00,
2013-09-17 09:30:00,49.1,36.2,30.55,North,11,5.0,8.0,61,0.00,,,0.00,Wunderground v.1.15,2013-09-17 13:30:00,
2013-09-17 09:35:00,49.3,36.4,30.55,NE,49,5.0,8.0,61,0.00,,,0.00,Wunderground v.1.15,2013-09-17 13:35:00,
2013-09-17 09:40:00,49.5,37.0,30.55,NE,52,5.0,7.0,62,0.00,,,0.00,Wunderground v.1.15,2013-09-17 13:40:00,
2013-09-17 09:45:00,49.6,37.1,30.55,NNE,22,6.0,9.0,62,0.00,,,0.00,Wunderground v.1.15,2013-09-17 13:45:00,
2013-09-17 09:50:00,50.1,37.2,30.55,NNE,16,6.0,8.0,61,0.00,,,0.00,Wunderground v.1.15,2013-09-17 13:50:00,
2013-09-17 09:55:00,50.5,36.3,30.55,ENE,61,5.0,8.0,58,0.00,,,0.00,Wunderground v.1.15,2013-09-17 13:55:00,
2013-09-17 10:00:00,50.4,35.3,30.55,NNE,27,6.0,10.0,56,0.00,,,0.00,Wunderground v.1.15,2013-09-17 14:00:00,
2013-09-17 10:10:00,50.6,35.5,30.55,NE,55,8.0,8.0,56,0.00,,,0.00,Wunderground v.1.15,2013-09-17 14:10:00,
2013-09-17 10:15:00,51.0,35.8,30.55,ENE,71,7.0,8.0,56,0.00,,,0.00,Wunderground v.1.15,2013-09-17 14:15:00,
2013-09-17 10:20:00,51.2,35.6,30.55,NE,37,7.0,10.0,55,0.00,,,0.00,Wunderground v.1.15,2013-09-17 14:20:00,
2013-09-17 10:25:00,51.1,35.5,30.54,NE,43,8.0,10.0,55,0.00,,,0.00,Wunderground v.1.15,2013-09-17 14:25:00,
2013-09-17 10:35:00,51.9,37.1,30.54,ENE,71,6.0,7.0,57,0.00,,,0.00,Wunderground v.1.15,2013-09-17 14:35:00,
2013-09-17 10:40:00,51.7,36.5,30.54,NNE,18,7.0,7.0,56,0.00,,,0.00,Wunderground v.1.15,2013-09-17 14:40:00,
2013-09-17 10:45:00,52.0,37.2,30.54,North,5,7.0,11.0,57,0.00,,,0.00,Wunderground v.1.15,2013-09-17 14:45:00,
2013-09-17 10:50:00,52.0,36.8,30.54,ESE,107,8.0,8.0,56,0.00,,,0.00,Wunderground v.1.15,2013-09-17 14:50:00,
2013-09-17 10:55:00,52.0,36.8,30.54,NE,53,8.0,8.0,56,0.00,,,0.00,Wunderground v.1.15,2013-09-17 14:55:00,
2013-09-17 11:00:00,52.3,37.5,30.54,North,5,8.0,8.0,57,0.00,,,0.00,Wunderground v.1.15,2013-09-17 15:00:00,
2013-09-17 11:05:00,52.5,37.7,30.54,North,5,6.0,8.0,57,0.00,,,0.00,Wunderground v.1.15,2013-09-17 15:05:00,
2013-09-17 11:10:00,52.9,37.2,30.54,NNE,29,5.0,6.0,55,0.00,,,0.00,Wunderground v.1.15,2013-09-17 15:10:00,
2013-09-17 11:15:00,53.0,37.3,30.54,NNE,24,5.0,6.0,55,0.00,,,0.00,Wunderground v.1.15,2013-09-17 15:15:00,
2013-09-17 11:20:00,53.1,37.3,30.54,NNE,30,4.0,6.0,55,0.00,,,0.00,Wunderground v.1.15,2013-09-17 15:20:00,
2013-09-17 11:25:00,53.0,37.7,30.53,ENE,70,5.0,6.0,56,0.00,,,0.00,Wunderground v.1.15,2013-09-17 15:25:00,
2013-09-17 11:30:00,53.7,37.9,30.54,NE,43,4.0,4.0,55,0.00,,,0.00,Wunderground v.1.15,2013-09-17 15:30:00,
2013-09-17 11:35:00,53.5,37.3,30.53,NE,42,3.0,4.0,54,0.00,,,0.00,Wunderground v.1.15,2013-09-17 15:35:00,
2013-09-17 11:40:00,53.4,38.1,30.54,North,355,4.0,4.0,56,0.00,,,0.00,Wunderground v.1.15,2013-09-17 15:40:00,
2013-09-17 11:45:00,53.7,37.9,30.54,NE,45,4.0,4.0,55,0.00,,,0.00,Wunderground v.1.15,2013-09-17 15:45:00,
2013-09-17 11:55:00,54.2,37.4,30.54,North,360,4.0,4.0,53,0.00,,,0.00,Wunderground v.1.15,2013-09-17 15:55:00,
2013-09-17 12:00:00,54.3,37.5,30.54,SSE,158,4.0,4.0,53,0.00,,,0.00,Wunderground v.1.15,2013-09-17 16:00:00,
2013-09-17 12:05:00,54.5,38.2,30.54,NNE,17,3.0,4.0,54,0.00,,,0.00,Wunderground v.1.15,2013-09-17 16:05:00,
2013-09-17 12:10:00,55.0,39.1,30.54,ENE,71,2.0,2.0,55,0.00,,,0.00,Wunderground v.1.15,2013-09-17 16:10:00,
2013-09-17 12:15:00,55.4,40.4,30.54,ENE,65,2.0,3.0,57,0.00,,,0.00,Wunderground v.1.15,2013-09-17 16:15:00,
2013-09-17 12:20:00,55.5,38.6,30.54,NE,55,3.0,3.0,53,0.00,,,0.00,Wunderground v.1.15,2013-09-17 16:20:00,
2013-09-17 12:25:00,55.4,38.5,30.53,NNE,13,3.0,3.0,53,0.00,,,0.00,Wunderground v.1.15,2013-09-17 16:25:00,
2013-09-17 12:30:00,56.0,40.1,30.53,WSW,248,2.0,2.0,55,0.00,,,0.00,Wunderground v.1.15,2013-09-17 16:30:00,
2013-09-17 12:35:00,56.8,40.8,30.53,WNW,302,1.0,4.0,55,0.00,,,0.00,Wunderground v.1.15,2013-09-17 16:35:00,
2013-09-17 12:40:00,56.4,40.9,30.53,NNE,17,2.0,5.0,56,0.00,,,0.00,Wunderground v.1.15,2013-09-17 16:40:00,
2013-09-17 12:50:00,56.5,38.6,30.52,North,360,2.0,2.0,51,0.00,,,0.00,Wunderground v.1.15,2013-09-17 16:50:00,
2013-09-17 12:55:00,56.5,39.6,30.51,NNW,331,2.0,2.0,53,0.00,,,0.00,Wunderground v.1.15,2013-09-17 16:55:00,
2013-09-17 13:00:00,57.1,39.6,30.51,NNW,346,3.0,3.0,52,0.00,,,0.00,Wunderground v.1.15,2013-09-17 17:00:00,
2013-09-17 13:05:00,57.2,39.2,30.51,NNE,26,2.0,3.0,51,0.00,,,0.00,Wunderground v.1.15,2013-09-17 17:05:00,
2013-09-17 13:10:00,57.2,39.2,30.52,West,273,2.0,2.0,51,0.00,,,0.00,Wunderground v.1.15,2013-09-17 17:10:00,
2013-09-17 13:20:00,57.5,39.0,30.51,SSW,204,2.0,2.0,50,0.00,,,0.00,Wunderground v.1.15,2013-09-17 17:20:00,
2013-09-17 13:25:00,57.8,38.8,30.51,NNW,335,2.0,2.0,49,0.00,,,0.00,Wunderground v.1.15,2013-09-17 17:25:00,
2013-09-17 13:30:00,57.8,39.3,30.51,NNW,329,2.0,2.0,50,0.00,,,0.00,Wunderground v.1.15,2013-09-17 17:30:00,
2013-09-17 13:35:00,58.4,40.3,30.51,West,273,2.0,2.0,51,0.00,,,0.00,Wunderground v.1.15,2013-09-17 17:35:00,
2013-09-17 13:40:00,58.2,39.6,30.51,NNE,18,3.0,3.0,50,0.00,,,0.00,Wunderground v.1.15,2013-09-17 17:40:00,
2013-09-17 13:45:00,58.5,39.9,30.50,West,265,3.0,3.0,50,0.00,,,0.00,Wunderground v.1.15,2013-09-17 17:45:00,
2013-09-17 13:50:00,58.7,39.6,30.50,WNW,293,2.0,4.0,49,0.00,,,0.00,Wunderground v.1.15,2013-09-17 17:50:00,
2013-09-17 13:55:00,59.3,41.7,30.50,NW,308,3.0,5.0,52,0.00,,,0.00,Wunderground v.1.15,2013-09-17 17:55:00,
2013-09-17 14:00:00,59.6,42.4,30.50,NE,53,3.0,3.0,53,0.00,,,0.00,Wunderground v.1.15,2013-09-17 18:00:00,
2013-09-17 14:10:00,59.1,39.9,30.50,WSW,240,4.0,4.0,49,0.00,,,0.00,Wunderground v.1.15,2013-09-17 18:10:00,
2013-09-17 14:15:00,59.4,39.7,30.50,North,11,4.0,4.0,48,0.00,,,0.00,Wunderground v.1.15,2013-09-17 18:15:00,
2013-09-17 14:20:00,59.4,39.7,30.49,SSE,157,3.0,3.0,48,0.00,,,0.00,Wunderground v.1.15,2013-09-17 18:20:00,
2013-09-17 14:25:00,59.4,38.6,30.49,NE,38,3.0,5.0,46,0.00,,,0.00,Wunderground v.1.15,2013-09-17 18:25:00,
2013-09-17 14:30:00,59.0,39.3,30.49,NE,34,4.0,4.0,48,0.00,,,0.00,Wunderground v.1.15,2013-09-17 18:30:00,
2013-09-17 14:35:00,59.3,39.6,30.49,NNE,19,4.0,4.0,48,0.00,,,0.00,Wunderground v.1.15,2013-09-17 18:35:00,
2013-09-17 14:40:00,59.4,39.7,30.49,ENE,78,3.0,3.0,48,0.00,,,0.00,Wunderground v.1.15,2013-09-17 18:40:00,
2013-09-17 14:45:00,59.8,39.5,30.49,North,349,3.0,5.0,47,0.00,,,0.00,Wunderground v.1.15,2013-09-17 18:45:00,
2013-09-17 14:50:00,59.6,38.8,30.49,NE,55,4.0,7.0,46,0.00,,,0.00,Wunderground v.1.15,2013-09-17 18:50:00,
2013-09-17 14:55:00,59.5,39.2,30.49,NNW,347,5.0,7.0,47,0.00,,,0.00,Wunderground v.1.15,2013-09-17 18:55:00,
2013-09-17 15:00:00,59.7,39.4,30.48,NE,37,4.0,5.0,47,0.00,,,0.00,Wunderground v.1.15,2013-09-17 19:00:00,
2013-09-17 15:05:00,59.7,38.9,30.48,North,5,4.0,5.0,46,0.00,,,0.00,Wunderground v.1.15,2013-09-17 19:05:00,
2013-09-17 15:10:00,59.8,39.0,30.48,ENE,58,3.0,3.0,46,0.00,,,0.00,Wunderground v.1.15,2013-09-17 19:10:00,
2013-09-17 15:15:00,60.1,39.2,30.48,NNW,348,2.0,3.0,46,0.00,,,0.00,Wunderground v.1.15,2013-09-17 19:15:00,
2013-09-17 15:25:00,60.4,38.9,30.47,NNE,21,2.0,2.0,45,0.00,,,0.00,Wunderground v.1.15,2013-09-17 19:25:00,
2013-09-17 15:30:00,60.4,39.5,30.47,NE,48,3.0,3.0,46,0.00,,,0.00,Wunderground v.1.15,2013-09-17 19:30:00,
2013-09-17 15:35:00,60.7,40.3,30.47,WNW,292,3.0,3.0,47,0.00,,,0.00,Wunderground v.1.15,2013-09-17 19:35:00,
2013-09-17 15:40:00,60.7,39.2,30.47,NNE,31,3.0,5.0,45,0.00,,,0.00,Wunderground v.1.15,2013-09-17 19:40:00,
2013-09-17 15:45:00,60.7,39.2,30.46,NE,54,3.0,5.0,45,0.00,,,0.00,Wunderground v.1.15,2013-09-17 19:45:00,
2013-09-17 15:50:00,60.8,39.9,30.46,NNE,17,2.0,2.0,46,0.00,,,0.00,Wunderground v.1.15,2013-09-17 19:50:00,
2013-09-17 15:55:00,61.3,39.8,30.46,NNW,347,1.0,2.0,45,0.00,,,0.00,Wunderground v.1.15,2013-09-17 19:55:00,
2013-09-17 16:00:00,61.6,40.6,30.46,NNE,14,2.0,7.0,46,0.00,,,0.00,Wunderground v.1.15,2013-09-17 20:00:00,
2013-09-17 16:05:00,61.6,41.2,30.46,North,11,3.0,7.0,47,0.00,,,0.00,Wunderground v.1.15,2013-09-17 20:05:00,
2013-09-17 16:10:00,61.2,40.2,30.46,NNE,23,3.0,3.0,46,0.00,,,0.00,Wunderground v.1.15,2013-09-17 20:10:00,
2013-09-17 16:15:00,61.2,39.7,30.46,North,350,3.0,3.0,45,0.00,,,0.00,Wunderground v.1.15,2013-09-17 20:15:00,
2013-09-17 16:20:00,61.4,41.0,30.46,North,355,3.0,6.0,47,0.00,,,0.00,Wunderground v.1.15,2013-09-17 20:20:00,
2013-09-17 16:25:00,61.1,40.7,30.46,NNE,15,4.0,6.0,47,0.00,,,0.00,Wunderground v.1.15,2013-09-17 20:25:00,
2013-09-17 16:30:00,61.1,41.2,30.46,NNE,32,4.0,4.0,48,0.00,,,0.00,Wunderground v.1.15,2013-09-17 20:30:00,
2013-09-17 16:35:00,61.2,40.8,30.46,NE,40,3.0,4.0,47,0.00,,,0.00,Wunderground v.1.15,2013-09-17 20:35:00,
2013-09-17 16:45:00,61.2,40.2,30.46,NNE,20,3.0,4.0,46,0.00,,,0.00,Wunderground v.1.15,2013-09-17 20:45:00,
2013-09-17 16:50:00,61.0,40.1,30.45,NNE,30,3.0,5.0,46,0.00,,,0.00,Wunderground v.1.15,2013-09-17 20:50:00,
2013-09-17 16:55:00,61.1,40.1,30.45,NNE,15,3.0,5.0,46,0.00,,,0.00,Wunderground v.1.15,2013-09-17 20:55:00,
2013-09-17 17:00:00,61.1,40.7,30.44,NNE,26,3.0,4.0,47,0.00,,,0.00,Wunderground v.1.15,2013-09-17 21:00:00,
2013-09-17 17:05:00,61.1,41.2,30.44,North,11,3.0,4.0,48,0.00,,,0.00,Wunderground v.1.15,2013-09-17 21:05:00,
2013-09-17 17:10:00,61.3,41.4,30.44,NNE,18,2.0,2.0,48,0.00,,,0.00,Wunderground v.1.15,2013-09-17 21:10:00,
2013-09-17 17:15:00,62.2,44.3,30.44,NNE,17,1.0,2.0,52,0.00,,,0.00,Wunderground v.1.15,2013-09-17 21:15:00,
2013-09-17 17:20:00,62.9,44.0,30.44,NNE,17,1.0,1.0,50,0.00,,,0.00,Wunderground v.1.15,2013-09-17 21:20:00,
2013-09-17 17:25:00,62.9,45.0,30.44,NW,308,1.0,1.0,52,0.00,,,0.00,Wunderground v.1.15,2013-09-17 21:25:00,
2013-09-17 17:30:00,63.0,44.6,30.44,West,274,1.0,2.0,51,0.00,,,0.00,Wunderground v.1.15,2013-09-17 21:30:00,
2013-09-17 17:35:00,62.4,44.0,30.44,SW,235,2.0,2.0,51,0.00,,,0.00,Wunderground v.1.15,2013-09-17 21:35:00,
2013-09-17 17:40:00,62.3,44.9,30.45,West,259,2.0,2.0,53,0.00,,,0.00,Wunderground v.1.15,2013-09-17 21:40:00,
2013-09-17 17:45:00,62.8,45.4,30.45,West,259,1.0,2.0,53,0.00,,,0.00,Wunderground v.1.15,2013-09-17 21:45:00,
2013-09-17 17:50:00,63.0,46.6,30.44,WSW,248,0.0,0.0,55,0.00,,,0.00,Wunderground v.1.15,2013-09-17 21:50:00,
2013-09-17 17:55:00,62.7,44.3,30.45,WNW,290,1.0,1.0,51,0.00,,,0.00,Wunderground v.1.15,2013-09-17 21:55:00,
2013-09-17 18:00:00,62.2,45.3,30.44,West,277,2.0,2.0,54,0.00,,,0.00,Wunderground v.1.15,2013-09-17 22:00:00,
2013-09-17 18:05:00,61.9,44.6,30.44,WSW,243,1.0,2.0,53,0.00,,,0.00,Wunderground v.1.15,2013-09-17 22:05:00,
2013-09-17 18:10:00,61.4,44.1,30.44,WSW,250,1.0,1.0,53,0.00,,,0.00,Wunderground v.1.15,2013-09-17 22:10:00,
2013-09-17 18:15:00,61.1,45.3,30.44,WSW,256,1.0,1.0,56,0.00,,,0.00,Wunderground v.1.15,2013-09-17 22:15:00,
2013-09-17 18:20:00,60.7,44.4,30.44,SW,231,1.0,2.0,55,0.00,,,0.00,Wunderground v.1.15,2013-09-17 22:20:00,
2013-09-17 18:25:00,60.4,44.2,30.44,WSW,248,1.0,2.0,55,0.00,,,0.00,Wunderground v.1.15,2013-09-17 22:25:00,
2013-09-17 18:30:00,59.9,46.4,30.44,WSW,248,1.0,1.0,61,0.00,,,0.00,Wunderground v.1.15,2013-09-17 22:30:00,
2013-09-17 18:35:00,59.2,48.2,30.44,WSW,248,0.0,1.0,67,0.00,,,0.00,Wunderground v.1.15,2013-09-17 22:35:00,
2013-09-17 18:40:00,58.3,47.4,30.44,WSW,248,0.0,0.0,67,0.00,,,0.00,Wunderground v.1.15,2013-09-17 22:40:00,
2013-09-17 18:50:00,56.4,47.9,30.43,WSW,248,0.0,0.0,73,0.00,,,0.00,Wunderground v.1.15,2013-09-17 22:50:00,
2013-09-17 18:55:00,55.7,46.1,30.43,WSW,248,0.0,1.0,70,0.00,,,0.00,Wunderground v.1.15,2013-09-17 22:55:00,
2013-09-17 19:00:00,55.4,44.2,30.43,WSW,248,0.0,0.0,66,0.00,,,0.00,Wunderground v.1.15,2013-09-17 23:00:00,
2013-09-17 19:15:00,55.5,43.9,30.43,SW,226,1.0,1.0,65,0.00,,,0.00,Wunderground v.1.15,2013-09-17 23:15:00,
2013-09-17 19:20:00,55.5,43.9,30.43,SW,223,1.0,1.0,65,0.00,,,0.00,Wunderground v.1.15,2013-09-17 23:20:00,
2013-09-17 19:25:00,55.3,44.1,30.43,SW,214,1.0,2.0,66,0.00,,,0.00,Wunderground v.1.15,2013-09-17 23:25:00,
2013-09-17 19:30:00,55.3,43.7,30.44,SW,214,1.0,1.0,65,0.00,,,0.00,Wunderground v.1.15,2013-09-17 23:30:00,
2013-09-17 19:35:00,55.2,44.0,30.44,SW,214,1.0,1.0,66,0.00,,,0.00,Wunderground v.1.15,2013-09-17 23:35:00,
2013-09-17 19:40:00,55.1,43.9,30.44,South,189,1.0,1.0,66,0.00,,,0.00,Wunderground v.1.15,2013-09-17 23:40:00,
2013-09-17 19:45:00,54.5,44.2,30.44,WNW,293,1.0,1.0,68,0.00,,,0.00,Wunderground v.1.15,2013-09-17 23:45:00,
2013-09-17 19:50:00,54.1,43.8,30.44,WNW,293,1.0,1.0,68,0.00,,,0.00,Wunderground v.1.15,2013-09-17 23:50:00,
2013-09-17 19:55:00,54.2,43.5,30.44,WSW,241,1.0,1.0,67,0.00,,,0.00,Wunderground v.1.15,2013-09-17 23:55:00,
2013-09-17 20:00:00,54.8,43.3,30.44,West,263,1.0,3.0,65,0.00,,,0.00,Wunderground v.1.15,2013-09-18 00:00:00,
2013-09-17 20:05:00,55.2,43.6,30.44,SW,219,2.0,3.0,65,0.00,,,0.00,Wunderground v.1.15,2013-09-18 00:05:00,
2013-09-17 20:10:00,55.0,43.4,30.44,SW,227,1.0,1.0,65,0.00,,,0.00,Wunderground v.1.15,2013-09-18 00:10:00,
2013-09-17 20:15:00,54.9,43.7,30.44,SW,226,1.0,1.0,66,0.00,,,0.00,Wunderground v.1.15,2013-09-18 00:15:00,
2013-09-17 20:25:00,54.6,42.7,30.45,WSW,257,1.0,1.0,64,0.00,,,0.00,Wunderground v.1.15,2013-09-18 00:25:00,
2013-09-17 20:30:00,54.5,42.6,30.45,West,269,1.0,1.0,64,0.00,,,0.00,Wunderground v.1.15,2013-09-18 00:30:00,
2013-09-17 20:35:00,54.1,43.0,30.45,West,269,1.0,1.0,66,0.00,,,0.00,Wunderground v.1.15,2013-09-18 00:35:00,
2013-09-17 20:40:00,53.7,42.6,30.45,SW,227,0.0,2.0,66,0.00,,,0.00,Wunderground v.1.15,2013-09-18 00:40:00,
2013-09-17 20:45:00,53.6,42.9,30.45,SW,217,1.0,2.0,67,0.00,,,0.00,Wunderground v.1.15,2013-09-18 00:45:00,
2013-09-17 20:50:00,53.3,42.2,30.45,SSW,200,1.0,1.0,66,0.00,,,0.00,Wunderground v.1.15,2013-09-18 00:50:00,
2013-09-17 21:00:00,53.2,42.5,30.45,SW,219,1.0,1.0,67,0.00,,,0.00,Wunderground v.1.15,2013-09-18 01:00:00,
2013-09-17 21:05:00,52.9,42.6,30.45,SW,219,0.0,1.0,68,0.00,,,0.00,Wunderground v.1.15,2013-09-18 01:05:00,
2013-09-17 21:10:00,52.7,42.0,30.45,WSW,240,1.0,1.0,67,0.00,,,0.00,Wunderground v.1.15,2013-09-18 01:10:00,
2013-09-17 21:15:00,52.7,42.0,30.45,SW,221,1.0,1.0,67,0.00,,,0.00,Wunderground v.1.15,2013-09-18 01:15:00,
2013-09-17 21:25:00,52.6,41.9,30.45,SW,224,1.0,2.0,67,0.00,,,0.00,Wunderground v.1.15,2013-09-18 01:25:00,
2013-09-17 21:30:00,52.4,41.8,30.45,West,267,2.0,3.0,67,0.00,,,0.00,Wunderground v.1.15,2013-09-18 01:30:00,
2013-09-17 21:35:00,52.6,41.6,30.45,WNW,300,2.0,3.0,66,0.00,,,0.00,Wunderground v.1.15,2013-09-18 01:35:00,
2013-09-17 21:40:00,52.8,41.4,30.45,South,177,2.0,2.0,65,0.00,,,0.00,Wunderground v.1.15,2013-09-18 01:40:00,
2013-09-17 21:45:00,52.6,41.6,30.45,WSW,254,1.0,2.0,66,0.00,,,0.00,Wunderground v.1.15,2013-09-18 01:45:00,
2013-09-17 21:50:00,52.6,41.6,30.45,SW,217,2.0,2.0,66,0.00,,,0.00,Wunderground v.1.15,2013-09-18 01:50:00,
2013-09-17 21:55:00,52.7,41.7,30.45,SW,215,1.0,2.0,66,0.00,,,0.00,Wunderground v.1.15,2013-09-18 01:55:00,
2013-09-17 22:00:00,52.5,41.5,30.45,South,188,1.0,2.0,66,0.00,,,0.00,Wunderground v.1.15,2013-09-18 02:00:00,
2013-09-17 22:10:00,52.5,41.1,30.45,WSW,240,1.0,2.0,65,0.00,,,0.00,Wunderground v.1.15,2013-09-18 02:10:00,
2013-09-17 22:15:00,52.7,40.9,30.45,WSW,242,1.0,2.0,64,0.00,,,0.00,Wunderground v.1.15,2013-09-18 02:15:00,
2013-09-17 22:20:00,52.9,41.0,30.45,WSW,237,1.0,1.0,64,0.00,,,0.00,Wunderground v.1.15,2013-09-18 02:20:00,
2013-09-17 22:25:00,53.1,40.8,30.45,South,179,2.0,3.0,63,0.00,,,0.00,Wunderground v.1.15,2013-09-18 02:25:00,
2013-09-17 22:30:00,53.2,41.7,30.45,SW,221,2.0,2.0,65,0.00,,,0.00,Wunderground v.1.15,2013-09-18 02:30:00,
2013-09-17 22:35:00,52.5,41.5,30.45,SW,221,1.0,2.0,66,0.00,,,0.00,Wunderground v.1.15,2013-09-18 02:35:00,
2013-09-17 22:40:00,52.1,41.1,30.45,West,266,1.0,2.0,66,0.00,,,0.00,Wunderground v.1.15,2013-09-18 02:40:00,
2013-09-17 22:45:00,52.0,40.6,30.44,West,266,1.0,2.0,65,0.00,,,0.00,Wunderground v.1.15,2013-09-18 02:45:00,
2013-09-17 22:50:00,52.0,41.0,30.44,West,266,1.0,1.0,66,0.00,,,0.00,Wunderground v.1.15,2013-09-18 02:50:00,
2013-09-17 22:55:00,51.8,40.8,30.44,WSW,243,1.0,1.0,66,0.00,,,0.00,Wunderground v.1.15,2013-09-18 02:55:00,
2013-09-17 23:00:00,51.9,40.5,30.44,SW,232,2.0,2.0,65,0.00,,,0.00,Wunderground v.1.15,2013-09-18 03:00:00,
2013-09-17 23:05:00,52.2,40.8,30.44,SSW,213,1.0,2.0,65,0.00,,,0.00,Wunderground v.1.15,2013-09-18 03:05:00,
2013-09-17 23:10:00,52.3,40.9,30.44,WSW,246,1.0,2.0,65,0.00,,,0.00,Wunderground v.1.15,2013-09-18 03:10:00,
2013-09-17 23:15:00,52.2,40.8,30.44,WSW,238,2.0,2.0,65,0.00,,,0.00,Wunderground v.1.15,2013-09-18 03:15:00,
2013-09-17 23:20:00,52.0,41.0,30.44,SSW,211,1.0,1.0,66,0.00,,,0.00,Wunderground v.1.15,2013-09-18 03:20:00,
2013-09-17 23:25:00,51.7,40.7,30.44,SSW,211,1.0,1.0,66,0.00,,,0.00,Wunderground v.1.15,2013-09-18 03:25:00,
2013-09-17 23:35:00,51.5,40.9,30.43,SSW,195,1.0,3.0,67,0.00,,,0.00,Wunderground v.1.15,2013-09-18 03:35:00,
2013-09-17 23:40:00,51.6,40.6,30.43,WSW,238,1.0,3.0,66,0.00,,,0.00,Wunderground v.1.15,2013-09-18 03:40:00,
2013-09-17 23:45:00,51.7,40.7,30.43,WSW,258,2.0,3.0,66,0.00,,,0.00,Wunderground v.1.15,2013-09-18 03:45:00,
2013-09-17 23:50:00,51.9,40.9,30.43,West,267,2.0,5.0,66,0.00,,,0.00,Wunderground v.1.15,2013-09-18 03:50:00,
2013-09-17 23:55:00,51.7,40.7,30.43,WSW,248,1.0,5.0,66,0.00,,,0.00,Wunderground v.1.15,2013-09-18 03:55:00,